User: anonymous   Login
Location: Unspecified
(0.0000°N, 0.0000°E)
Time: 15:38:37
(UTC+00:00)
Language:

OPTOS - Orbit

View from above orbital plane
View from above orbital plane
View from above satellite
View from above satellite

Ground track
Ground track

The orbit data is extracted from the following two-line orbital elements,

1 39429U 13066P   24111.27284768  .00011539  00000-0  17924-2 0  9990
2 39429  97.7679 359.6774 0133177  44.7471 316.4386 14.67368353555264
Epoch (UTC): 20 April 2024 06:32:54
Eccentricity: 0.0133177
inclination: 97.7679°
perigee height: 575 km
apogee height: 763 km
right ascension of ascending node: 359.6774°
argument of perigee: 44.7471°
revolutions per day: 14.67368353
mean anomaly at epoch: 316.4386°
orbit number at epoch: 55526

The dashed part of the orbit path shows where the satellite is in the earth's shadow,  

DLR